User: anonymous   Login
Location: Unspecified
(0.0000°N, 0.0000°E)
Time: 22:36:26
(UTC+00:00)
Language:

ELEKTRO-L - Orbit

View from above orbital plane
View from above orbital plane
View from above satellite
View from above satellite

Ground track
Ground track

The orbit data is extracted from the following two-line orbital elements,

1 37344U 11001A   15030.81647513 -.00000113  00000-0  00000+0 0  2110
2 37344 000.6945 080.9300 0000831 143.0978 275.5369 01.00266975 14807
Epoch (UTC): 30 January 2015 19:35:43
Eccentricity: 0.0000831
inclination: 0.6945°
perigee height: 35784 km
apogee height: 35791 km
right ascension of ascending node: 80.9300°
argument of perigee: 143.0978°
revolutions per day: 1.00266975
mean anomaly at epoch: 275.5369°
orbit number at epoch: 1480

The dashed part of the orbit path shows where the satellite is in the earth's shadow,  

DLR